Year,Month,Day,Hour,Minute,Value (Times are PST for temperature in C)
2020,04,12,00,00,5.90
2020,04,12,00,01,5.90
2020,04,12,00,02,5.90
2020,04,12,00,03,5.80
2020,04,12,00,04,5.80
2020,04,12,00,05,5.80
2020,04,12,00,06,5.80
2020,04,12,00,07,5.70
2020,04,12,00,08,5.80
2020,04,12,00,09,5.80
2020,04,12,00,10,5.80
2020,04,12,00,11,5.80
2020,04,12,00,12,5.80
2020,04,12,00,13,5.80
2020,04,12,00,14,5.80
2020,04,12,00,15,5.80
2020,04,12,00,16,5.80
2020,04,12,00,17,5.80
2020,04,12,00,18,5.80
2020,04,12,00,19,5.80
2020,04,12,00,20,5.70
2020,04,12,00,21,5.70
2020,04,12,00,22,5.70
2020,04,12,00,23,5.60
2020,04,12,00,24,5.60
2020,04,12,00,25,5.60
2020,04,12,00,26,5.60
2020,04,12,00,27,5.60
2020,04,12,00,28,5.60
2020,04,12,00,29,5.60
2020,04,12,00,30,5.60
2020,04,12,00,31,5.70
2020,04,12,00,32,5.80
2020,04,12,00,33,5.90
2020,04,12,00,34,5.90
2020,04,12,00,35,6.00
2020,04,12,00,36,6.00
2020,04,12,00,37,6.00
2020,04,12,00,38,6.00
2020,04,12,00,39,6.10
2020,04,12,00,40,6.10
2020,04,12,00,41,6.10
2020,04,12,00,42,6.10
2020,04,12,00,43,6.10
2020,04,12,00,44,6.10
2020,04,12,00,45,6.10
2020,04,12,00,46,6.00
2020,04,12,00,47,6.00
2020,04,12,00,48,6.00
2020,04,12,00,49,5.90
2020,04,12,00,50,5.90
2020,04,12,00,51,5.90
2020,04,12,00,52,5.80
2020,04,12,00,53,5.80
2020,04,12,00,54,5.80
2020,04,12,00,55,5.70
2020,04,12,00,56,5.70
2020,04,12,00,57,5.60
2020,04,12,00,58,5.60
2020,04,12,00,59,5.60
2020,04,12,01,00,5.60
2020,04,12,01,01,5.60
2020,04,12,01,02,5.60
2020,04,12,01,03,5.60
2020,04,12,01,04,5.60
2020,04,12,01,05,5.60
2020,04,12,01,06,5.60
2020,04,12,01,07,5.50
2020,04,12,01,08,5.50
2020,04,12,01,09,5.40
2020,04,12,01,10,5.40
2020,04,12,01,11,5.40
2020,04,12,01,12,5.30
2020,04,12,01,13,5.30
2020,04,12,01,14,5.30
2020,04,12,01,15,5.30
2020,04,12,01,16,5.30
2020,04,12,01,17,5.30
2020,04,12,01,18,5.30
2020,04,12,01,19,5.30
2020,04,12,01,20,5.30
2020,04,12,01,21,5.30
2020,04,12,01,22,5.30
2020,04,12,01,23,5.30
2020,04,12,01,24,5.20
2020,04,12,01,25,5.20
2020,04,12,01,26,5.20
2020,04,12,01,27,5.10
2020,04,12,01,28,5.10
2020,04,12,01,29,5.10
2020,04,12,01,30,5.20
2020,04,12,01,31,5.20
2020,04,12,01,32,5.30
2020,04,12,01,33,5.30
2020,04,12,01,34,5.40
2020,04,12,01,35,5.40
2020,04,12,01,36,5.40
2020,04,12,01,37,5.50
2020,04,12,01,38,5.50
2020,04,12,01,39,5.50
2020,04,12,01,40,5.50
2020,04,12,01,41,5.50
2020,04,12,01,42,5.40
2020,04,12,01,43,5.30
2020,04,12,01,44,5.30
2020,04,12,01,45,5.20
2020,04,12,01,46,5.10
2020,04,12,01,47,5.10
2020,04,12,01,48,5.00
2020,04,12,01,49,5.00
2020,04,12,01,50,5.00
2020,04,12,01,51,5.00
2020,04,12,01,52,5.00
2020,04,12,01,53,4.90
2020,04,12,01,54,4.90
2020,04,12,01,55,4.90
2020,04,12,01,56,4.90
2020,04,12,01,57,4.90
2020,04,12,01,58,4.90
2020,04,12,01,59,4.90
2020,04,12,02,00,4.90
2020,04,12,02,01,4.90
2020,04,12,02,02,4.90
2020,04,12,02,03,4.90
2020,04,12,02,04,4.90
2020,04,12,02,05,5.00
2020,04,12,02,06,5.10
2020,04,12,02,07,5.20
2020,04,12,02,08,5.30
2020,04,12,02,09,5.40
2020,04,12,02,10,5.40
2020,04,12,02,11,5.50
2020,04,12,02,12,5.50
2020,04,12,02,13,5.50
2020,04,12,02,14,5.50
2020,04,12,02,15,5.40
2020,04,12,02,16,5.40
2020,04,12,02,17,5.30
2020,04,12,02,18,5.20
2020,04,12,02,19,5.10
2020,04,12,02,20,5.10
2020,04,12,02,21,5.10
2020,04,12,02,22,5.10
2020,04,12,02,23,5.10
2020,04,12,02,24,5.00
2020,04,12,02,25,5.00
2020,04,12,02,26,5.00
2020,04,12,02,27,5.00
2020,04,12,02,28,4.90
2020,04,12,02,29,4.90
2020,04,12,02,30,4.90
2020,04,12,02,31,4.80
2020,04,12,02,32,4.80
2020,04,12,02,33,4.80
2020,04,12,02,34,4.80
2020,04,12,02,35,4.80
2020,04,12,02,36,4.80
2020,04,12,02,37,4.70
2020,04,12,02,38,4.70
2020,04,12,02,39,4.60
2020,04,12,02,40,4.50
2020,04,12,02,41,4.40
2020,04,12,02,42,4.30
2020,04,12,02,43,4.30
2020,04,12,02,44,4.20
2020,04,12,02,45,4.20
2020,04,12,02,46,4.20
2020,04,12,02,47,4.20
2020,04,12,02,48,4.20
2020,04,12,02,49,4.30
2020,04,12,02,50,4.30
2020,04,12,02,51,4.40
2020,04,12,02,52,4.40
2020,04,12,02,53,4.50
2020,04,12,02,54,4.60
2020,04,12,02,55,4.60
2020,04,12,02,56,4.60
2020,04,12,02,57,4.70
2020,04,12,02,58,4.70
2020,04,12,02,59,4.60
2020,04,12,03,00,4.50
2020,04,12,03,01,4.50
2020,04,12,03,02,4.40
2020,04,12,03,03,4.40
2020,04,12,03,04,4.30
2020,04,12,03,05,4.30
2020,04,12,03,06,4.20
2020,04,12,03,07,4.20
2020,04,12,03,08,4.10
2020,04,12,03,09,4.10
2020,04,12,03,10,4.00
2020,04,12,03,11,4.00
2020,04,12,03,12,3.90
2020,04,12,03,13,3.90
2020,04,12,03,14,3.90
2020,04,12,03,15,3.80
2020,04,12,03,16,3.80
2020,04,12,03,17,3.80
2020,04,12,03,18,3.70
2020,04,12,03,19,3.70
2020,04,12,03,20,3.70
2020,04,12,03,21,3.70
2020,04,12,03,22,3.70
2020,04,12,03,23,3.70
2020,04,12,03,24,3.80
2020,04,12,03,25,3.80
2020,04,12,03,26,3.80
2020,04,12,03,27,3.90
2020,04,12,03,28,4.00
2020,04,12,03,29,4.00
2020,04,12,03,30,4.10
2020,04,12,03,31,4.10
2020,04,12,03,32,4.20
2020,04,12,03,33,4.20
2020,04,12,03,34,4.20
2020,04,12,03,35,4.10
2020,04,12,03,36,4.10
2020,04,12,03,37,4.00
2020,04,12,03,38,4.00
2020,04,12,03,39,3.90
2020,04,12,03,40,3.90
2020,04,12,03,41,3.80
2020,04,12,03,42,3.80
2020,04,12,03,43,3.80
2020,04,12,03,44,3.70
2020,04,12,03,45,3.70
2020,04,12,03,46,3.60
2020,04,12,03,47,3.50
2020,04,12,03,48,3.50
2020,04,12,03,49,3.40
2020,04,12,03,50,3.40
2020,04,12,03,51,3.30
2020,04,12,03,52,3.30
2020,04,12,03,53,3.20
2020,04,12,03,54,3.10
2020,04,12,03,55,3.10
2020,04,12,03,56,3.00
2020,04,12,03,57,3.00
2020,04,12,03,58,2.90
2020,04,12,03,59,2.90
2020,04,12,04,00,2.90
2020,04,12,04,01,2.90
2020,04,12,04,02,2.90
2020,04,12,04,03,2.90
2020,04,12,04,04,2.90
2020,04,12,04,05,2.90
2020,04,12,04,06,2.80
2020,04,12,04,07,2.80
2020,04,12,04,08,2.80
2020,04,12,04,09,2.80
2020,04,12,04,10,2.80
2020,04,12,04,11,2.80
2020,04,12,04,12,2.70
2020,04,12,04,13,2.80
2020,04,12,04,14,2.80
2020,04,12,04,15,2.80
2020,04,12,04,16,2.80
2020,04,12,04,17,2.90
2020,04,12,04,18,2.90
2020,04,12,04,19,2.90
2020,04,12,04,20,2.90
2020,04,12,04,21,2.90
2020,04,12,04,22,3.00
2020,04,12,04,23,3.10
2020,04,12,04,24,3.20
2020,04,12,04,25,3.20
2020,04,12,04,26,3.30
2020,04,12,04,27,3.30
2020,04,12,04,28,3.30
2020,04,12,04,29,3.30
2020,04,12,04,30,3.40
2020,04,12,04,31,3.40
2020,04,12,04,32,3.40
2020,04,12,04,33,3.50
2020,04,12,04,34,3.50
2020,04,12,04,35,3.50
2020,04,12,04,36,3.50
2020,04,12,04,37,3.50
2020,04,12,04,38,3.50
2020,04,12,04,39,3.50
2020,04,12,04,40,3.40
2020,04,12,04,41,3.40
2020,04,12,04,42,3.40
2020,04,12,04,43,3.30
2020,04,12,04,44,3.30
2020,04,12,04,45,3.30
2020,04,12,04,46,3.20
2020,04,12,04,47,3.10
2020,04,12,04,48,3.10
2020,04,12,04,49,3.10
2020,04,12,04,50,3.00
2020,04,12,04,51,2.90
2020,04,12,04,52,2.90
2020,04,12,04,53,2.80
2020,04,12,04,54,2.70
2020,04,12,04,55,2.60
2020,04,12,04,56,2.50
2020,04,12,04,57,2.40
2020,04,12,04,58,2.40
2020,04,12,04,59,2.30
2020,04,12,05,00,2.30
2020,04,12,05,01,2.20
2020,04,12,05,02,2.20
2020,04,12,05,03,2.30
2020,04,12,05,04,2.30
2020,04,12,05,05,2.30
2020,04,12,05,06,2.40
2020,04,12,05,07,2.40
2020,04,12,05,08,2.40
2020,04,12,05,09,2.40
2020,04,12,05,10,2.30
2020,04,12,05,11,2.30
2020,04,12,05,12,2.20
2020,04,12,05,13,2.20
2020,04,12,05,14,2.20
2020,04,12,05,15,2.20
2020,04,12,05,16,2.10
2020,04,12,05,17,2.10
2020,04,12,05,18,2.10
2020,04,12,05,19,2.20
2020,04,12,05,20,2.20
2020,04,12,05,21,2.30
2020,04,12,05,22,2.40
2020,04,12,05,23,2.40
2020,04,12,05,24,2.40
2020,04,12,05,25,2.40
2020,04,12,05,26,2.30
2020,04,12,05,27,2.30
2020,04,12,05,28,2.20
2020,04,12,05,29,2.20
2020,04,12,05,30,2.20
2020,04,12,05,31,2.20
2020,04,12,05,32,2.10
2020,04,12,05,33,2.20
2020,04,12,05,34,2.20
2020,04,12,05,35,2.20
2020,04,12,05,36,2.20
2020,04,12,05,37,2.20
2020,04,12,05,38,2.40
2020,04,12,05,39,2.50
2020,04,12,05,40,2.70
2020,04,12,05,41,2.80
2020,04,12,05,42,2.80
2020,04,12,05,43,2.80
2020,04,12,05,44,2.80
2020,04,12,05,45,2.80
2020,04,12,05,46,2.80
2020,04,12,05,47,2.70
2020,04,12,05,48,2.70
2020,04,12,05,49,2.60
2020,04,12,05,50,2.50
2020,04,12,05,51,2.50
2020,04,12,05,52,2.50
2020,04,12,05,53,2.40
2020,04,12,05,54,2.40
2020,04,12,05,55,2.40
2020,04,12,05,56,2.40
2020,04,12,05,57,2.40
2020,04,12,05,58,2.50
2020,04,12,05,59,2.50
2020,04,12,06,00,2.50
2020,04,12,06,01,2.60
2020,04,12,06,02,2.80
2020,04,12,06,03,2.90
2020,04,12,06,04,3.00
2020,04,12,06,05,3.10
2020,04,12,06,06,3.20
2020,04,12,06,07,3.30
2020,04,12,06,08,3.30
2020,04,12,06,09,3.30
2020,04,12,06,10,3.30
2020,04,12,06,11,3.10
2020,04,12,06,12,2.80
2020,04,12,06,13,2.60
2020,04,12,06,14,2.40
2020,04,12,06,15,2.30
2020,04,12,06,16,2.20
2020,04,12,06,17,2.10
2020,04,12,06,18,2.00
2020,04,12,06,19,1.90
2020,04,12,06,20,1.80
2020,04,12,06,21,1.70
2020,04,12,06,22,1.60
2020,04,12,06,23,1.50
2020,04,12,06,24,1.50
2020,04,12,06,25,1.40
2020,04,12,06,26,1.30
2020,04,12,06,27,1.30
2020,04,12,06,28,1.20
2020,04,12,06,29,1.20
2020,04,12,06,30,1.10
2020,04,12,06,31,1.10
2020,04,12,06,32,1.10
2020,04,12,06,33,1.10
2020,04,12,06,34,1.10
2020,04,12,06,35,1.00
2020,04,12,06,36,1.00
2020,04,12,06,37,1.00
2020,04,12,06,38,0.90
2020,04,12,06,39,0.90
2020,04,12,06,40,0.80
2020,04,12,06,41,0.80
2020,04,12,06,42,0.70
2020,04,12,06,43,0.70
2020,04,12,06,44,0.70
2020,04,12,06,45,0.70
2020,04,12,06,46,0.70
2020,04,12,06,47,0.80
2020,04,12,06,48,0.90
2020,04,12,06,49,1.00
2020,04,12,06,50,1.10
2020,04,12,06,51,1.10
2020,04,12,06,52,1.20
2020,04,12,06,53,1.20
2020,04,12,06,54,1.20
2020,04,12,06,55,1.20
2020,04,12,06,56,1.20
2020,04,12,06,57,1.30
2020,04,12,06,58,1.30
2020,04,12,06,59,1.30
2020,04,12,07,00,1.40
2020,04,12,07,01,1.40
2020,04,12,07,02,1.50
2020,04,12,07,03,1.60
2020,04,12,07,04,1.60
2020,04,12,07,05,1.70
2020,04,12,07,06,1.80
2020,04,12,07,07,1.90
2020,04,12,07,08,2.00
2020,04,12,07,09,2.00
2020,04,12,07,10,2.10
2020,04,12,07,11,2.10
2020,04,12,07,12,2.20
2020,04,12,07,13,2.20
2020,04,12,07,14,2.20
2020,04,12,07,15,2.20
2020,04,12,07,16,2.30
2020,04,12,07,17,2.30
2020,04,12,07,18,2.30
2020,04,12,07,19,2.30
2020,04,12,07,20,2.40
2020,04,12,07,21,2.50
2020,04,12,07,22,2.50
2020,04,12,07,23,2.60
2020,04,12,07,24,2.70
2020,04,12,07,25,2.70
2020,04,12,07,26,2.70
2020,04,12,07,27,2.70
2020,04,12,07,28,2.80
2020,04,12,07,29,2.80
2020,04,12,07,30,2.80
2020,04,12,07,31,2.80
2020,04,12,07,32,2.80
2020,04,12,07,33,2.80
2020,04,12,07,34,2.90
2020,04,12,07,35,2.90
2020,04,12,07,36,2.90
2020,04,12,07,37,3.00
2020,04,12,07,38,3.10
2020,04,12,07,39,3.10
2020,04,12,07,40,3.20
2020,04,12,07,41,3.30
2020,04,12,07,42,3.30
2020,04,12,07,43,3.40
2020,04,12,07,44,3.40
2020,04,12,07,45,3.50
2020,04,12,07,46,3.50
2020,04,12,07,47,3.50
2020,04,12,07,48,3.60
2020,04,12,07,49,3.70
2020,04,12,07,50,3.70
2020,04,12,07,51,3.80
2020,04,12,07,52,3.80
2020,04,12,07,53,3.90
2020,04,12,07,54,3.90
2020,04,12,07,55,4.00
2020,04,12,07,56,4.10
2020,04,12,07,57,4.10
2020,04,12,07,58,4.20
2020,04,12,07,59,4.30
2020,04,12,08,00,4.30
2020,04,12,08,01,4.40
2020,04,12,08,02,4.40
2020,04,12,08,03,4.50
2020,04,12,08,04,4.50
2020,04,12,08,05,4.60
2020,04,12,08,06,4.70
2020,04,12,08,07,4.70
2020,04,12,08,08,4.80
2020,04,12,08,09,4.80
2020,04,12,08,10,4.90
2020,04,12,08,11,5.00
2020,04,12,08,12,5.10
2020,04,12,08,13,5.20
2020,04,12,08,14,5.20
2020,04,12,08,15,5.30
2020,04,12,08,16,5.40
2020,04,12,08,17,5.50
2020,04,12,08,18,5.60
2020,04,12,08,19,5.70
2020,04,12,08,20,5.80
2020,04,12,08,21,5.90
2020,04,12,08,22,6.00
2020,04,12,08,23,6.10
2020,04,12,08,24,6.20
2020,04,12,08,25,6.20
2020,04,12,08,26,6.30
2020,04,12,08,27,6.40
2020,04,12,08,28,6.50
2020,04,12,08,29,6.50
2020,04,12,08,30,6.60
2020,04,12,08,31,6.70
2020,04,12,08,32,6.70
2020,04,12,08,33,6.80
2020,04,12,08,34,6.90
2020,04,12,08,35,6.90
2020,04,12,08,36,6.90
2020,04,12,08,37,7.00
2020,04,12,08,38,7.00
2020,04,12,08,39,7.10
2020,04,12,08,40,7.10
2020,04,12,08,41,7.10
2020,04,12,08,42,7.10
2020,04,12,08,43,7.20
2020,04,12,08,44,7.20
2020,04,12,08,45,7.30
2020,04,12,08,46,7.30
2020,04,12,08,47,7.30
2020,04,12,08,48,7.30
2020,04,12,08,49,7.30
2020,04,12,08,50,7.40
2020,04,12,08,51,7.40
2020,04,12,08,52,7.40
2020,04,12,08,53,7.40
2020,04,12,08,54,7.40
2020,04,12,08,55,7.50
2020,04,12,08,56,7.50
2020,04,12,08,57,7.50
2020,04,12,08,58,7.60
2020,04,12,08,59,7.60
2020,04,12,09,00,7.60
2020,04,12,09,01,7.60
2020,04,12,09,02,7.60
2020,04,12,09,03,7.60
2020,04,12,09,04,7.60
2020,04,12,09,05,7.60
2020,04,12,09,06,7.60
2020,04,12,09,07,7.60
2020,04,12,09,08,7.60
2020,04,12,09,09,7.60
2020,04,12,09,10,7.60
2020,04,12,09,11,7.60
2020,04,12,09,12,7.60
2020,04,12,09,13,7.60
2020,04,12,09,14,7.60
2020,04,12,09,15,7.60
2020,04,12,09,16,7.60
2020,04,12,09,17,7.60
2020,04,12,09,18,7.70
2020,04,12,09,19,7.70
2020,04,12,09,20,7.70
2020,04,12,09,21,7.70
2020,04,12,09,22,7.70
2020,04,12,09,23,7.80
2020,04,12,09,24,7.80
2020,04,12,09,25,7.90
2020,04,12,09,26,7.90
2020,04,12,09,27,7.90
2020,04,12,09,28,7.90
2020,04,12,09,29,8.00
2020,04,12,09,30,8.00
2020,04,12,09,31,8.10
2020,04,12,09,32,8.10
2020,04,12,09,33,8.10
2020,04,12,09,34,8.10
2020,04,12,09,35,8.10
2020,04,12,09,36,8.10
2020,04,12,09,37,8.10
2020,04,12,09,38,8.10
2020,04,12,09,39,8.10
2020,04,12,09,40,8.10
2020,04,12,09,41,8.10
2020,04,12,09,42,8.10
2020,04,12,09,43,8.10
2020,04,12,09,44,8.20
2020,04,12,09,45,8.30
2020,04,12,09,46,8.30
2020,04,12,09,47,8.30
2020,04,12,09,48,8.30
2020,04,12,09,49,8.30
2020,04,12,09,50,8.30
2020,04,12,09,51,8.30
2020,04,12,09,52,8.30
2020,04,12,09,53,8.30
2020,04,12,09,54,8.30
2020,04,12,09,55,8.30
2020,04,12,09,56,8.40
2020,04,12,09,57,8.40
2020,04,12,09,58,8.40
2020,04,12,09,59,8.40
2020,04,12,10,00,8.40
2020,04,12,10,01,8.40
2020,04,12,10,02,8.50
2020,04,12,10,03,8.50
2020,04,12,10,04,8.60
2020,04,12,10,05,8.70
2020,04,12,10,06,8.70
2020,04,12,10,07,8.70
2020,04,12,10,08,8.80
2020,04,12,10,09,8.80
2020,04,12,10,10,8.90
2020,04,12,10,11,9.00
2020,04,12,10,12,9.10
2020,04,12,10,13,9.10
2020,04,12,10,14,9.20
2020,04,12,10,15,9.20
2020,04,12,10,16,9.30
2020,04,12,10,17,9.20
2020,04,12,10,18,9.20
2020,04,12,10,19,9.20
2020,04,12,10,20,9.20
2020,04,12,10,21,9.20
2020,04,12,10,22,9.30
2020,04,12,10,23,9.30
2020,04,12,10,24,9.30
2020,04,12,10,25,9.40
2020,04,12,10,26,9.50
2020,04,12,10,27,9.60
2020,04,12,10,28,9.70
2020,04,12,10,29,9.70
2020,04,12,10,30,9.80
2020,04,12,10,31,9.80
2020,04,12,10,32,9.80
2020,04,12,10,33,9.80
2020,04,12,10,34,9.80
2020,04,12,10,35,9.90
2020,04,12,10,36,10.00
2020,04,12,10,37,10.10
2020,04,12,10,38,10.10
2020,04,12,10,39,10.20
2020,04,12,10,40,10.20
2020,04,12,10,41,10.20
2020,04,12,10,42,10.20
2020,04,12,10,43,10.30
2020,04,12,10,44,10.40
2020,04,12,10,45,10.50
2020,04,12,10,46,10.60
2020,04,12,10,47,10.70
2020,04,12,10,48,10.70
2020,04,12,10,49,10.80
2020,04,12,10,50,10.80
2020,04,12,10,51,10.90
2020,04,12,10,52,11.00
2020,04,12,10,53,11.10
2020,04,12,10,54,11.10
2020,04,12,10,55,11.10
2020,04,12,10,56,11.10
2020,04,12,10,57,11.10
2020,04,12,10,58,11.20
2020,04,12,10,59,11.20
2020,04,12,11,00,11.20
2020,04,12,11,01,11.30
2020,04,12,11,02,11.30
2020,04,12,11,03,11.40
2020,04,12,11,04,11.50
2020,04,12,11,05,11.60
2020,04,12,11,06,11.60
2020,04,12,11,07,11.60
2020,04,12,11,08,11.60
2020,04,12,11,09,11.70
2020,04,12,11,10,11.70
2020,04,12,11,11,11.60
2020,04,12,11,12,11.60
2020,04,12,11,13,11.60
2020,04,12,11,14,11.60
2020,04,12,11,15,11.60
2020,04,12,11,16,11.70
2020,04,12,11,17,11.70
2020,04,12,11,18,11.80
2020,04,12,11,19,11.80
2020,04,12,11,20,11.80
2020,04,12,11,21,11.80
2020,04,12,11,22,11.90
2020,04,12,11,23,12.00
2020,04,12,11,24,12.00
2020,04,12,11,25,12.10
2020,04,12,11,26,12.00
2020,04,12,11,27,12.00
2020,04,12,11,28,11.90
2020,04,12,11,29,11.90
2020,04,12,11,30,11.80
2020,04,12,11,31,11.80
2020,04,12,11,32,11.80
2020,04,12,11,33,11.80
2020,04,12,11,34,11.80
2020,04,12,11,35,11.80
2020,04,12,11,36,11.90
2020,04,12,11,37,12.10
2020,04,12,11,38,12.20
2020,04,12,11,39,12.20
2020,04,12,11,40,12.20
2020,04,12,11,41,12.20
2020,04,12,11,42,12.20
2020,04,12,11,43,12.10
2020,04,12,11,44,12.10
2020,04,12,11,45,12.00
2020,04,12,11,46,12.00
2020,04,12,11,47,11.90
2020,04,12,11,48,11.90
2020,04,12,11,49,11.90
2020,04,12,11,50,11.90
2020,04,12,11,51,11.90
2020,04,12,11,52,11.90
2020,04,12,11,53,11.90
2020,04,12,11,54,12.00
2020,04,12,11,55,12.10
2020,04,12,11,56,12.20
2020,04,12,11,57,12.30
2020,04,12,11,58,12.20
2020,04,12,11,59,12.20
2020,04,12,12,00,12.10
2020,04,12,12,01,12.10
2020,04,12,12,02,12.10
2020,04,12,12,03,12.20
2020,04,12,12,04,12.20
2020,04,12,12,05,12.30
2020,04,12,12,06,12.30
2020,04,12,12,07,12.30
2020,04,12,12,08,12.20
2020,04,12,12,09,12.20
2020,04,12,12,10,12.30
2020,04,12,12,11,12.30
2020,04,12,12,12,12.40
2020,04,12,12,13,12.40
2020,04,12,12,14,12.40
2020,04,12,12,15,12.40
2020,04,12,12,16,12.40
2020,04,12,12,17,12.50
2020,04,12,12,18,12.50
2020,04,12,12,19,12.60
2020,04,12,12,20,12.60
2020,04,12,12,21,12.60
2020,04,12,12,22,12.60
2020,04,12,12,23,12.60
2020,04,12,12,24,12.50
2020,04,12,12,25,12.40
2020,04,12,12,26,12.40
2020,04,12,12,27,12.40
2020,04,12,12,28,12.40
2020,04,12,12,29,12.40
2020,04,12,12,30,12.40
2020,04,12,12,31,12.40
2020,04,12,12,32,12.40
2020,04,12,12,33,12.40
2020,04,12,12,34,12.40
2020,04,12,12,35,12.40
2020,04,12,12,36,12.30
2020,04,12,12,37,12.30
2020,04,12,12,38,12.30
2020,04,12,12,39,12.30
2020,04,12,12,40,12.20
2020,04,12,12,41,12.30
2020,04,12,12,42,12.30
2020,04,12,12,43,12.30
2020,04,12,12,44,12.30
2020,04,12,12,45,12.30
2020,04,12,12,46,12.40
2020,04,12,12,47,12.50
2020,04,12,12,48,12.50
2020,04,12,12,49,12.50
2020,04,12,12,50,12.50
2020,04,12,12,51,12.50
2020,04,12,12,52,12.50
2020,04,12,12,53,12.40
2020,04,12,12,54,12.40
2020,04,12,12,55,12.50
2020,04,12,12,56,12.40
2020,04,12,12,57,12.40
2020,04,12,12,58,12.40
2020,04,12,12,59,12.50
2020,04,12,13,00,12.50
2020,04,12,13,01,12.50
2020,04,12,13,02,12.50
2020,04,12,13,03,12.40
2020,04,12,13,04,12.40
2020,04,12,13,05,12.30
2020,04,12,13,06,12.30
2020,04,12,13,07,12.30
2020,04,12,13,08,12.30
2020,04,12,13,09,12.30
2020,04,12,13,10,12.30
2020,04,12,13,11,12.30
2020,04,12,13,12,12.30
2020,04,12,13,13,12.40
2020,04,12,13,14,12.40
2020,04,12,13,15,12.40
2020,04,12,13,16,12.40
2020,04,12,13,17,12.40
2020,04,12,13,18,12.30
2020,04,12,13,19,12.30
2020,04,12,13,20,12.30
2020,04,12,13,21,12.30
2020,04,12,13,22,12.30
2020,04,12,13,23,12.30
2020,04,12,13,24,12.30
2020,04,12,13,25,12.30
2020,04,12,13,26,12.30
2020,04,12,13,27,12.30
2020,04,12,13,28,12.40
2020,04,12,13,29,12.50
2020,04,12,13,30,12.50
2020,04,12,13,31,12.60
2020,04,12,13,32,12.60
2020,04,12,13,33,12.70
2020,04,12,13,34,12.70
2020,04,12,13,35,12.80
2020,04,12,13,36,12.80
2020,04,12,13,37,12.80
2020,04,12,13,38,12.80
2020,04,12,13,39,12.90
2020,04,12,13,40,12.90
2020,04,12,13,41,12.90
2020,04,12,13,42,12.90
2020,04,12,13,43,12.90
2020,04,12,13,44,13.00
2020,04,12,13,45,13.00
2020,04,12,13,46,13.10
2020,04,12,13,47,13.20
2020,04,12,13,48,13.20
2020,04,12,13,49,13.10
2020,04,12,13,50,13.10
2020,04,12,13,51,13.00
2020,04,12,13,52,12.90
2020,04,12,13,53,12.90
2020,04,12,13,54,12.90
2020,04,12,13,55,12.90
2020,04,12,13,56,12.90
2020,04,12,13,57,12.90
2020,04,12,13,58,12.90
2020,04,12,13,59,12.90
2020,04,12,14,00,12.90
2020,04,12,14,01,12.90
2020,04,12,14,02,12.90
2020,04,12,14,03,12.80
2020,04,12,14,04,12.70
2020,04,12,14,05,12.60
2020,04,12,14,06,12.60
2020,04,12,14,07,12.50
2020,04,12,14,08,12.50
2020,04,12,14,09,12.60
2020,04,12,14,10,12.60
2020,04,12,14,11,12.60
2020,04,12,14,12,12.60
2020,04,12,14,13,12.70
2020,04,12,14,14,12.80
2020,04,12,14,15,12.90
2020,04,12,14,16,12.90
2020,04,12,14,17,13.10
2020,04,12,14,18,13.20
2020,04,12,14,19,13.30
2020,04,12,14,20,13.40
2020,04,12,14,21,13.40
2020,04,12,14,22,13.40
2020,04,12,14,23,13.40
2020,04,12,14,24,13.30
2020,04,12,14,25,13.30
2020,04,12,14,26,13.30
2020,04,12,14,27,13.20
2020,04,12,14,28,13.20
2020,04,12,14,29,13.20
2020,04,12,14,30,13.20
2020,04,12,14,31,13.20
2020,04,12,14,32,13.10
2020,04,12,14,33,13.00
2020,04,12,14,34,13.00
2020,04,12,14,35,12.90
2020,04,12,14,36,13.00
2020,04,12,14,37,13.00
2020,04,12,14,38,13.10
2020,04,12,14,39,13.10
2020,04,12,14,40,13.20
2020,04,12,14,41,13.30
2020,04,12,14,42,13.40
2020,04,12,14,43,13.50
2020,04,12,14,44,13.70
2020,04,12,14,45,13.80
2020,04,12,14,46,14.00
2020,04,12,14,47,14.10
2020,04,12,14,48,14.10
2020,04,12,14,49,14.20
2020,04,12,14,50,14.30
2020,04,12,14,51,14.40
2020,04,12,14,52,14.50
2020,04,12,14,53,14.50
2020,04,12,14,54,14.50
2020,04,12,14,55,14.50
2020,04,12,14,56,14.40
2020,04,12,14,57,14.30
2020,04,12,14,58,14.20
2020,04,12,14,59,14.20
2020,04,12,15,00,14.20
2020,04,12,15,01,14.30
2020,04,12,15,02,14.30
2020,04,12,15,03,14.30
2020,04,12,15,04,14.40
2020,04,12,15,05,14.40
2020,04,12,15,06,14.50
2020,04,12,15,07,14.50
2020,04,12,15,08,14.50
2020,04,12,15,09,14.60
2020,04,12,15,10,14.60
2020,04,12,15,11,14.60
2020,04,12,15,12,14.60
2020,04,12,15,13,14.40
2020,04,12,15,14,14.30
2020,04,12,15,15,14.10
2020,04,12,15,16,14.00
2020,04,12,15,17,13.90
2020,04,12,15,18,13.80
2020,04,12,15,19,13.80
2020,04,12,15,20,13.80
2020,04,12,15,21,13.70
2020,04,12,15,22,13.70
2020,04,12,15,23,13.70
2020,04,12,15,24,13.70
2020,04,12,15,25,13.80
2020,04,12,15,26,13.80
2020,04,12,15,27,13.80
2020,04,12,15,28,13.90
2020,04,12,15,29,13.90
2020,04,12,15,30,14.00
2020,04,12,15,31,14.10
2020,04,12,15,32,14.20
2020,04,12,15,33,14.20
2020,04,12,15,34,14.20
2020,04,12,15,35,14.20
2020,04,12,15,36,14.20
2020,04,12,15,37,14.30
2020,04,12,15,38,14.30
2020,04,12,15,39,14.30
2020,04,12,15,40,14.30
2020,04,12,15,41,14.40
2020,04,12,15,42,14.40
2020,04,12,15,43,14.50
2020,04,12,15,44,14.50
2020,04,12,15,45,14.50
2020,04,12,15,46,14.50
2020,04,12,15,47,14.50
2020,04,12,15,48,14.50
2020,04,12,15,49,14.50
2020,04,12,15,50,14.50
2020,04,12,15,51,14.40
2020,04,12,15,52,14.30
2020,04,12,15,53,14.30
2020,04,12,15,54,14.20
2020,04,12,15,55,14.20
2020,04,12,15,56,14.20
2020,04,12,15,57,14.20
2020,04,12,15,58,14.30
2020,04,12,15,59,14.30
2020,04,12,16,00,14.40
2020,04,12,16,01,14.50
2020,04,12,16,02,14.60
2020,04,12,16,03,14.70
2020,04,12,16,04,14.80
2020,04,12,16,05,14.90
2020,04,12,16,06,14.90
2020,04,12,16,07,14.90
2020,04,12,16,08,14.90
2020,04,12,16,09,15.00
2020,04,12,16,10,15.00
2020,04,12,16,11,15.10
2020,04,12,16,12,15.10
2020,04,12,16,13,15.20
2020,04,12,16,14,15.30
2020,04,12,16,15,15.30
2020,04,12,16,16,15.30
2020,04,12,16,17,15.30
2020,04,12,16,18,15.30
2020,04,12,16,19,15.30
2020,04,12,16,20,15.30
2020,04,12,16,21,15.30
2020,04,12,16,22,15.40
2020,04,12,16,23,15.40
2020,04,12,16,24,15.40
2020,04,12,16,25,15.40
2020,04,12,16,26,15.40
2020,04,12,16,27,15.40
2020,04,12,16,28,15.40
2020,04,12,16,29,15.40
2020,04,12,16,30,15.50
2020,04,12,16,31,15.50
2020,04,12,16,32,15.50
2020,04,12,16,33,15.50
2020,04,12,16,34,15.50
2020,04,12,16,35,15.40
2020,04,12,16,36,15.40
2020,04,12,16,37,15.30
2020,04,12,16,38,15.30
2020,04,12,16,39,15.30
2020,04,12,16,40,15.30
2020,04,12,16,41,15.30
2020,04,12,16,42,15.30
2020,04,12,16,43,15.30
2020,04,12,16,44,15.30
2020,04,12,16,45,15.30
2020,04,12,16,46,15.30
2020,04,12,16,47,15.30
2020,04,12,16,48,15.30
2020,04,12,16,49,15.20
2020,04,12,16,50,15.20
2020,04,12,16,51,15.20
2020,04,12,16,52,15.10
2020,04,12,16,53,15.10
2020,04,12,16,54,15.10
2020,04,12,16,55,15.20
2020,04,12,16,56,15.20
2020,04,12,16,57,15.30
2020,04,12,16,58,15.40
2020,04,12,16,59,15.40
2020,04,12,17,00,15.40
2020,04,12,17,01,15.40
2020,04,12,17,02,15.40
2020,04,12,17,03,15.40
2020,04,12,17,04,15.40
2020,04,12,17,05,15.40
2020,04,12,17,06,15.40
2020,04,12,17,07,15.40
2020,04,12,17,08,15.50
2020,04,12,17,09,15.50
2020,04,12,17,10,15.50
2020,04,12,17,11,15.50
2020,04,12,17,12,15.50
2020,04,12,17,13,15.50
2020,04,12,17,14,15.60
2020,04,12,17,15,15.60
2020,04,12,17,16,15.60
2020,04,12,17,17,15.60
2020,04,12,17,18,15.70
2020,04,12,17,19,15.80
2020,04,12,17,20,15.80
2020,04,12,17,21,15.90
2020,04,12,17,22,15.80
2020,04,12,17,23,15.80
2020,04,12,17,24,15.80
2020,04,12,17,25,15.80
2020,04,12,17,26,15.80
2020,04,12,17,27,15.80
2020,04,12,17,28,15.80
2020,04,12,17,29,15.80
2020,04,12,17,30,15.80
2020,04,12,17,31,15.80
2020,04,12,17,32,15.90
2020,04,12,17,33,15.90
2020,04,12,17,34,15.90
2020,04,12,17,35,15.90
2020,04,12,17,36,15.90
2020,04,12,17,37,15.90
2020,04,12,17,38,15.90
2020,04,12,17,39,15.90
2020,04,12,17,40,15.90
2020,04,12,17,41,15.90
2020,04,12,17,42,15.90
2020,04,12,17,43,15.80
2020,04,12,17,44,15.80
2020,04,12,17,45,15.80
2020,04,12,17,46,15.70
2020,04,12,17,47,15.70